Year,Month,Day,Hour,Minute,Value (Times are PST for temperature in C)
2015,07,19,00,00,19.80
2015,07,19,00,01,19.80
2015,07,19,00,02,19.70
2015,07,19,00,03,19.70
2015,07,19,00,04,19.70
2015,07,19,00,05,19.60
2015,07,19,00,06,19.60
2015,07,19,00,07,19.60
2015,07,19,00,08,19.50
2015,07,19,00,09,19.50
2015,07,19,00,10,19.50
2015,07,19,00,11,19.50
2015,07,19,00,12,19.50
2015,07,19,00,13,19.60
2015,07,19,00,14,19.60
2015,07,19,00,15,19.60
2015,07,19,00,16,19.60
2015,07,19,00,17,19.60
2015,07,19,00,18,19.60
2015,07,19,00,19,19.60
2015,07,19,00,20,19.60
2015,07,19,00,21,19.60
2015,07,19,00,22,19.60
2015,07,19,00,23,19.50
2015,07,19,00,24,19.50
2015,07,19,00,25,19.50
2015,07,19,00,26,19.50
2015,07,19,00,27,19.40
2015,07,19,00,28,19.40
2015,07,19,00,29,19.40
2015,07,19,00,30,19.30
2015,07,19,00,31,19.30
2015,07,19,00,32,19.30
2015,07,19,00,33,19.30
2015,07,19,00,34,19.30
2015,07,19,00,35,19.30
2015,07,19,00,36,19.30
2015,07,19,00,37,19.30
2015,07,19,00,38,19.30
2015,07,19,00,39,19.30
2015,07,19,00,40,19.30
2015,07,19,00,41,19.30
2015,07,19,00,42,19.30
2015,07,19,00,43,19.20
2015,07,19,00,44,19.20
2015,07,19,00,45,19.20
2015,07,19,00,46,19.10
2015,07,19,00,47,19.10
2015,07,19,00,48,19.10
2015,07,19,00,49,19.10
2015,07,19,00,50,19.00
2015,07,19,00,51,19.00
2015,07,19,00,52,18.90
2015,07,19,00,53,18.90
2015,07,19,00,54,18.90
2015,07,19,00,55,18.90
2015,07,19,00,56,18.90
2015,07,19,00,57,18.80
2015,07,19,00,58,18.80
2015,07,19,00,59,18.80
2015,07,19,01,00,18.80
2015,07,19,01,01,18.80
2015,07,19,01,02,18.70
2015,07,19,01,03,18.70
2015,07,19,01,04,18.70
2015,07,19,01,05,18.70
2015,07,19,01,06,18.70
2015,07,19,01,07,18.60
2015,07,19,01,08,18.60
2015,07,19,01,09,18.60
2015,07,19,01,10,18.60
2015,07,19,01,11,18.50
2015,07,19,01,12,18.50
2015,07,19,01,13,18.50
2015,07,19,01,14,18.50
2015,07,19,01,15,18.40
2015,07,19,01,16,18.40
2015,07,19,01,17,18.40
2015,07,19,01,18,18.40
2015,07,19,01,19,18.40
2015,07,19,01,20,18.30
2015,07,19,01,21,18.30
2015,07,19,01,22,18.30
2015,07,19,01,23,18.30
2015,07,19,01,24,18.30
2015,07,19,01,25,18.20
2015,07,19,01,26,18.20
2015,07,19,01,27,18.20
2015,07,19,01,28,18.20
2015,07,19,01,29,18.20
2015,07,19,01,30,18.10
2015,07,19,01,31,18.10
2015,07,19,01,32,18.10
2015,07,19,01,33,18.10
2015,07,19,01,34,18.10
2015,07,19,01,35,18.10
2015,07,19,01,36,18.00
2015,07,19,01,37,18.00
2015,07,19,01,38,18.00
2015,07,19,01,39,18.00
2015,07,19,01,40,18.00
2015,07,19,01,41,17.90
2015,07,19,01,42,17.90
2015,07,19,01,43,17.90
2015,07,19,01,44,17.90
2015,07,19,01,45,17.90
2015,07,19,01,46,17.90
2015,07,19,01,47,17.90
2015,07,19,01,48,17.90
2015,07,19,01,49,17.90
2015,07,19,01,50,17.80
2015,07,19,01,51,17.80
2015,07,19,01,52,17.80
2015,07,19,01,53,17.80
2015,07,19,01,54,17.80
2015,07,19,01,55,17.70
2015,07,19,01,56,17.70
2015,07,19,01,57,17.70
2015,07,19,01,58,17.70
2015,07,19,01,59,17.70
2015,07,19,02,00,17.70
2015,07,19,02,01,17.70
2015,07,19,02,02,17.70
2015,07,19,02,03,17.70
2015,07,19,02,04,17.60
2015,07,19,02,05,17.60
2015,07,19,02,06,17.60
2015,07,19,02,07,17.60
2015,07,19,02,08,17.70
2015,07,19,02,09,17.70
2015,07,19,02,10,17.70
2015,07,19,02,11,17.70
2015,07,19,02,12,17.70
2015,07,19,02,13,17.70
2015,07,19,02,14,17.70
2015,07,19,02,15,17.70
2015,07,19,02,16,17.70
2015,07,19,02,17,17.70
2015,07,19,02,18,17.70
2015,07,19,02,19,17.70
2015,07,19,02,20,17.70
2015,07,19,02,21,17.70
2015,07,19,02,22,17.70
2015,07,19,02,23,17.80
2015,07,19,02,24,17.80
2015,07,19,02,25,17.80
2015,07,19,02,26,17.80
2015,07,19,02,27,17.80
2015,07,19,02,28,17.80
2015,07,19,02,29,17.80
2015,07,19,02,30,17.80
2015,07,19,02,31,17.80
2015,07,19,02,32,17.80
2015,07,19,02,33,17.80
2015,07,19,02,34,17.80
2015,07,19,02,35,17.70
2015,07,19,02,36,17.70
2015,07,19,02,37,17.70
2015,07,19,02,38,17.70
2015,07,19,02,39,17.70
2015,07,19,02,40,17.70
2015,07,19,02,41,17.60
2015,07,19,02,42,17.60
2015,07,19,02,43,17.60
2015,07,19,02,44,17.60
2015,07,19,02,45,17.60
2015,07,19,02,46,17.60
2015,07,19,02,47,17.60
2015,07,19,02,48,17.60
2015,07,19,02,49,17.60
2015,07,19,02,50,17.60
2015,07,19,02,51,17.60
2015,07,19,02,52,17.60
2015,07,19,02,53,17.60
2015,07,19,02,54,17.60
2015,07,19,02,55,17.50
2015,07,19,02,56,17.50
2015,07,19,02,57,17.50
2015,07,19,02,58,17.40
2015,07,19,02,59,17.40
2015,07,19,03,00,17.40
2015,07,19,03,01,17.40
2015,07,19,03,02,17.40
2015,07,19,03,03,17.40
2015,07,19,03,04,17.40
2015,07,19,03,05,17.30
2015,07,19,03,06,17.30
2015,07,19,03,07,17.30
2015,07,19,03,08,17.30
2015,07,19,03,09,17.20
2015,07,19,03,10,17.20
2015,07,19,03,11,17.20
2015,07,19,03,12,17.20
2015,07,19,03,13,17.20
2015,07,19,03,14,17.20
2015,07,19,03,15,17.10
2015,07,19,03,16,17.10
2015,07,19,03,17,17.10
2015,07,19,03,18,17.20
2015,07,19,03,19,17.20
2015,07,19,03,20,17.20
2015,07,19,03,21,17.20
2015,07,19,03,22,17.20
2015,07,19,03,23,17.20
2015,07,19,03,24,17.30
2015,07,19,03,25,17.30
2015,07,19,03,26,17.30
2015,07,19,03,27,17.40
2015,07,19,03,28,17.40
2015,07,19,03,29,17.40
2015,07,19,03,30,17.40
2015,07,19,03,31,17.40
2015,07,19,03,32,17.40
2015,07,19,03,33,17.40
2015,07,19,03,34,17.40
2015,07,19,03,35,17.40
2015,07,19,03,36,17.40
2015,07,19,03,37,17.30
2015,07,19,03,38,17.30
2015,07,19,03,39,17.30
2015,07,19,03,40,17.30
2015,07,19,03,41,17.20
2015,07,19,03,42,17.20
2015,07,19,03,43,17.20
2015,07,19,03,44,17.20
2015,07,19,03,45,17.20
2015,07,19,03,46,17.20
2015,07,19,03,47,17.20
2015,07,19,03,48,17.20
2015,07,19,03,49,17.20
2015,07,19,03,50,17.20
2015,07,19,03,51,17.20
2015,07,19,03,52,17.20
2015,07,19,03,53,17.20
2015,07,19,03,54,17.20
2015,07,19,03,55,17.10
2015,07,19,03,56,17.10
2015,07,19,03,57,17.10
2015,07,19,03,58,17.10
2015,07,19,03,59,17.10
2015,07,19,04,00,17.10
2015,07,19,04,01,17.10
2015,07,19,04,02,17.00
2015,07,19,04,03,17.00
2015,07,19,04,04,17.00
2015,07,19,04,05,17.00
2015,07,19,04,06,17.00
2015,07,19,04,07,17.10
2015,07,19,04,08,17.10
2015,07,19,04,09,17.10
2015,07,19,04,10,17.10
2015,07,19,04,11,17.10
2015,07,19,04,12,17.10
2015,07,19,04,13,17.10
2015,07,19,04,14,17.10
2015,07,19,04,15,17.10
2015,07,19,04,16,17.00
2015,07,19,04,17,17.00
2015,07,19,04,18,17.00
2015,07,19,04,19,17.00
2015,07,19,04,20,17.00
2015,07,19,04,21,17.00
2015,07,19,04,22,16.90
2015,07,19,04,23,16.90
2015,07,19,04,24,16.90
2015,07,19,04,25,16.90
2015,07,19,04,26,16.90
2015,07,19,04,27,16.90
2015,07,19,04,28,16.90
2015,07,19,04,29,16.90
2015,07,19,04,30,16.90
2015,07,19,04,31,16.90
2015,07,19,04,32,16.90
2015,07,19,04,33,16.90
2015,07,19,04,34,16.90
2015,07,19,04,35,16.90
2015,07,19,04,36,17.00
2015,07,19,04,37,17.00
2015,07,19,04,38,17.00
2015,07,19,04,39,17.00
2015,07,19,04,40,16.90
2015,07,19,04,41,16.90
2015,07,19,04,42,16.90
2015,07,19,04,43,16.90
2015,07,19,04,44,16.90
2015,07,19,04,45,16.90
2015,07,19,04,46,16.90
2015,07,19,04,47,16.90
2015,07,19,04,48,16.90
2015,07,19,04,49,16.90
2015,07,19,04,50,16.90
2015,07,19,04,51,16.90
2015,07,19,04,52,16.90
2015,07,19,04,53,16.90
2015,07,19,04,54,16.80
2015,07,19,04,55,16.80
2015,07,19,04,56,16.80
2015,07,19,04,57,16.80
2015,07,19,04,58,16.80
2015,07,19,04,59,16.80
2015,07,19,05,00,16.80
2015,07,19,05,01,16.80
2015,07,19,05,02,16.80
2015,07,19,05,03,16.80
2015,07,19,05,04,16.80
2015,07,19,05,05,16.80
2015,07,19,05,06,16.80
2015,07,19,05,07,16.80
2015,07,19,05,08,16.80
2015,07,19,05,09,16.80
2015,07,19,05,10,16.70
2015,07,19,05,11,16.70
2015,07,19,05,12,16.70
2015,07,19,05,13,16.70
2015,07,19,05,14,16.70
2015,07,19,05,15,16.70
2015,07,19,05,16,16.70
2015,07,19,05,17,16.70
2015,07,19,05,18,16.70
2015,07,19,05,19,16.60
2015,07,19,05,20,16.60
2015,07,19,05,21,16.60
2015,07,19,05,22,16.60
2015,07,19,05,23,16.60
2015,07,19,05,24,16.60
2015,07,19,05,25,16.60
2015,07,19,05,26,16.50
2015,07,19,05,27,16.50
2015,07,19,05,28,16.50
2015,07,19,05,29,16.50
2015,07,19,05,30,16.40
2015,07,19,05,31,16.40
2015,07,19,05,32,16.50
2015,07,19,05,33,16.50
2015,07,19,05,34,16.50
2015,07,19,05,35,16.60
2015,07,19,05,36,16.60
2015,07,19,05,37,16.60
2015,07,19,05,38,16.60
2015,07,19,05,39,16.60
2015,07,19,05,40,16.60
2015,07,19,05,41,16.60
2015,07,19,05,42,16.60
2015,07,19,05,43,16.60
2015,07,19,05,44,16.60
2015,07,19,05,45,16.60
2015,07,19,05,46,16.60
2015,07,19,05,47,16.50
2015,07,19,05,48,16.60
2015,07,19,05,49,16.60
2015,07,19,05,50,16.60
2015,07,19,05,51,16.60
2015,07,19,05,52,16.60
2015,07,19,05,53,16.60
2015,07,19,05,54,16.60
2015,07,19,05,55,16.60
2015,07,19,05,56,16.60
2015,07,19,05,57,16.60
2015,07,19,05,58,16.60
2015,07,19,05,59,16.60
2015,07,19,06,00,16.60
2015,07,19,06,01,16.50
2015,07,19,06,02,16.50
2015,07,19,06,03,16.50
2015,07,19,06,04,16.50
2015,07,19,06,05,16.50
2015,07,19,06,06,16.50
2015,07,19,06,07,16.60
2015,07,19,06,08,16.60
2015,07,19,06,09,16.60
2015,07,19,06,10,16.60
2015,07,19,06,11,16.60
2015,07,19,06,12,16.60
2015,07,19,06,13,16.60
2015,07,19,06,14,16.60
2015,07,19,06,15,16.60
2015,07,19,06,16,16.60
2015,07,19,06,17,16.60
2015,07,19,06,18,16.60
2015,07,19,06,19,16.60
2015,07,19,06,20,16.60
2015,07,19,06,21,16.60
2015,07,19,06,22,16.70
2015,07,19,06,23,16.70
2015,07,19,06,24,16.70
2015,07,19,06,25,16.70
2015,07,19,06,26,16.70
2015,07,19,06,27,16.70
2015,07,19,06,28,16.80
2015,07,19,06,29,16.80
2015,07,19,06,30,16.80
2015,07,19,06,31,16.80
2015,07,19,06,32,16.80
2015,07,19,06,33,16.90
2015,07,19,06,34,16.90
2015,07,19,06,35,17.00
2015,07,19,06,36,17.10
2015,07,19,06,37,17.10
2015,07,19,06,38,17.20
2015,07,19,06,39,17.30
2015,07,19,06,40,17.30
2015,07,19,06,41,17.40
2015,07,19,06,42,17.40
2015,07,19,06,43,17.50
2015,07,19,06,44,17.50
2015,07,19,06,45,17.50
2015,07,19,06,46,17.60
2015,07,19,06,47,17.60
2015,07,19,06,48,17.70
2015,07,19,06,49,17.70
2015,07,19,06,50,17.80
2015,07,19,06,51,17.90
2015,07,19,06,52,18.10
2015,07,19,06,53,18.30
2015,07,19,06,54,18.60
2015,07,19,06,55,18.90
2015,07,19,06,56,19.10
2015,07,19,06,57,19.40
2015,07,19,06,58,19.70
2015,07,19,06,59,19.90
2015,07,19,07,00,20.20
2015,07,19,07,01,20.50
2015,07,19,07,02,20.70
2015,07,19,07,03,20.80
2015,07,19,07,04,21.00
2015,07,19,07,05,21.20
2015,07,19,07,06,21.30
2015,07,19,07,07,21.40
2015,07,19,07,08,21.50
2015,07,19,07,09,21.60
2015,07,19,07,10,21.80
2015,07,19,07,11,21.80
2015,07,19,07,12,21.80
2015,07,19,07,13,21.70
2015,07,19,07,14,21.50
2015,07,19,07,15,21.30
2015,07,19,07,16,21.00
2015,07,19,07,17,20.70
2015,07,19,07,18,20.50
2015,07,19,07,19,20.40
2015,07,19,07,20,20.20
2015,07,19,07,21,20.10
2015,07,19,07,22,20.00
2015,07,19,07,23,19.90
2015,07,19,07,24,19.80
2015,07,19,07,25,19.80
2015,07,19,07,26,19.90
2015,07,19,07,27,20.00
2015,07,19,07,28,20.00
2015,07,19,07,29,20.10
2015,07,19,07,30,20.20
2015,07,19,07,31,20.40
2015,07,19,07,32,20.50
2015,07,19,07,33,20.70
2015,07,19,07,34,20.90
2015,07,19,07,35,21.10
2015,07,19,07,36,21.40
2015,07,19,07,37,21.60
2015,07,19,07,38,21.80
2015,07,19,07,39,22.00
2015,07,19,07,40,22.20
2015,07,19,07,41,22.30
2015,07,19,07,42,22.40
2015,07,19,07,43,22.60
2015,07,19,07,44,22.70
2015,07,19,07,45,22.70
2015,07,19,07,46,22.80
2015,07,19,07,47,22.90
2015,07,19,07,48,23.00
2015,07,19,07,49,23.00
2015,07,19,07,50,23.10
2015,07,19,07,51,23.10
2015,07,19,07,52,23.20
2015,07,19,07,53,23.20
2015,07,19,07,54,23.20
2015,07,19,07,55,23.30
2015,07,19,07,56,23.30
2015,07,19,07,57,23.30
2015,07,19,07,58,23.30
2015,07,19,07,59,23.30
2015,07,19,08,00,23.40
2015,07,19,08,01,23.40
2015,07,19,08,02,23.40
2015,07,19,08,03,23.40
2015,07,19,08,04,23.40
2015,07,19,08,05,23.50
2015,07,19,08,06,23.50
2015,07,19,08,07,23.60
2015,07,19,08,08,23.60
2015,07,19,08,09,23.60
2015,07,19,08,10,23.60
2015,07,19,08,11,23.60
2015,07,19,08,12,23.60
2015,07,19,08,13,23.60
2015,07,19,08,14,23.60
2015,07,19,08,15,23.60
2015,07,19,08,16,23.70
2015,07,19,08,17,23.70
2015,07,19,08,18,23.80
2015,07,19,08,19,23.80
2015,07,19,08,20,23.90
2015,07,19,08,21,23.90
2015,07,19,08,22,23.90
2015,07,19,08,23,24.00
2015,07,19,08,24,24.00
2015,07,19,08,25,24.00
2015,07,19,08,26,24.10
2015,07,19,08,27,24.10
2015,07,19,08,28,24.20
2015,07,19,08,29,24.20
2015,07,19,08,30,24.20
2015,07,19,08,31,24.30
2015,07,19,08,32,24.30
2015,07,19,08,33,24.30
2015,07,19,08,34,24.30
2015,07,19,08,35,24.30
2015,07,19,08,36,24.30
2015,07,19,08,37,24.40
2015,07,19,08,38,24.40
2015,07,19,08,39,24.40
2015,07,19,08,40,24.30
2015,07,19,08,41,24.30
2015,07,19,08,42,24.40
2015,07,19,08,43,24.30
2015,07,19,08,44,24.30
2015,07,19,08,45,24.30
2015,07,19,08,46,24.40
2015,07,19,08,47,24.50
2015,07,19,08,48,24.50
2015,07,19,08,49,24.60
2015,07,19,08,50,24.70
2015,07,19,08,51,24.70
2015,07,19,08,52,24.80
2015,07,19,08,53,24.90
2015,07,19,08,54,24.90
2015,07,19,08,55,25.00
2015,07,19,08,56,25.00
2015,07,19,08,57,25.00
2015,07,19,08,58,25.10
2015,07,19,08,59,25.10
2015,07,19,09,00,25.20
2015,07,19,09,01,25.20
2015,07,19,09,02,25.30
2015,07,19,09,03,25.30
2015,07,19,09,04,25.30
2015,07,19,09,05,25.20
2015,07,19,09,06,25.20
2015,07,19,09,07,25.20
2015,07,19,09,08,25.20
2015,07,19,09,09,25.20
2015,07,19,09,10,25.20
2015,07,19,09,11,25.20
2015,07,19,09,12,25.20
2015,07,19,09,13,25.20
2015,07,19,09,14,25.20
2015,07,19,09,15,25.20
2015,07,19,09,16,25.20
2015,07,19,09,17,25.30
2015,07,19,09,18,25.30
2015,07,19,09,19,25.40
2015,07,19,09,20,25.40
2015,07,19,09,21,25.40
2015,07,19,09,22,25.50
2015,07,19,09,23,25.60
2015,07,19,09,24,25.60
2015,07,19,09,25,25.70
2015,07,19,09,26,25.70
2015,07,19,09,27,25.70
2015,07,19,09,28,25.70
2015,07,19,09,29,25.60
2015,07,19,09,30,25.60
2015,07,19,09,31,25.60
2015,07,19,09,32,25.60
2015,07,19,09,33,25.60
2015,07,19,09,34,25.60
2015,07,19,09,35,25.70
2015,07,19,09,36,25.70
2015,07,19,09,37,25.70
2015,07,19,09,38,25.80
2015,07,19,09,39,25.80
2015,07,19,09,40,25.90
2015,07,19,09,41,25.90
2015,07,19,09,42,26.00
2015,07,19,09,43,26.10
2015,07,19,09,44,26.20
2015,07,19,09,45,26.20
2015,07,19,09,46,26.30
2015,07,19,09,47,26.30
2015,07,19,09,48,26.30
2015,07,19,09,49,26.40
2015,07,19,09,50,26.50
2015,07,19,09,51,26.60
2015,07,19,09,52,26.70
2015,07,19,09,53,26.80
2015,07,19,09,54,26.90
2015,07,19,09,55,26.90
2015,07,19,09,56,27.00
2015,07,19,09,57,27.00
2015,07,19,09,58,27.00
2015,07,19,09,59,27.10
2015,07,19,10,00,27.10
2015,07,19,10,01,27.10
2015,07,19,10,02,27.00
2015,07,19,10,03,27.00
2015,07,19,10,04,26.90
2015,07,19,10,05,26.90
2015,07,19,10,06,26.90
2015,07,19,10,07,26.90
2015,07,19,10,08,26.80
2015,07,19,10,09,26.80
2015,07,19,10,10,26.80
2015,07,19,10,11,26.80
2015,07,19,10,12,26.80
2015,07,19,10,13,26.80
2015,07,19,10,14,26.80
2015,07,19,10,15,26.80
2015,07,19,10,16,26.80
2015,07,19,10,17,26.80
2015,07,19,10,18,26.80
2015,07,19,10,19,26.80
2015,07,19,10,20,26.80
2015,07,19,10,21,26.80
2015,07,19,10,22,26.80
2015,07,19,10,23,26.80
2015,07,19,10,24,26.80
2015,07,19,10,25,26.70
2015,07,19,10,26,26.70
2015,07,19,10,27,26.80
2015,07,19,10,28,26.80
2015,07,19,10,29,26.80
2015,07,19,10,30,26.80
2015,07,19,10,31,26.80
2015,07,19,10,32,26.80
2015,07,19,10,33,26.80
2015,07,19,10,34,26.80
2015,07,19,10,35,26.70
2015,07,19,10,36,26.70
2015,07,19,10,37,26.70
2015,07,19,10,38,26.70
2015,07,19,10,39,26.70
2015,07,19,10,40,26.80
2015,07,19,10,41,26.90
2015,07,19,10,42,26.90
2015,07,19,10,43,27.00
2015,07,19,10,44,26.90
2015,07,19,10,45,26.90
2015,07,19,10,46,27.00
2015,07,19,10,47,27.00
2015,07,19,10,48,27.10
2015,07,19,10,49,27.10
2015,07,19,10,50,27.20
2015,07,19,10,51,27.20
2015,07,19,10,52,27.30
2015,07,19,10,53,27.30
2015,07,19,10,54,27.30
2015,07,19,10,55,27.20
2015,07,19,10,56,27.20
2015,07,19,10,57,27.20
2015,07,19,10,58,27.10
2015,07,19,10,59,27.10
2015,07,19,11,00,27.10
2015,07,19,11,01,27.20
2015,07,19,11,02,27.20
2015,07,19,11,03,27.20
2015,07,19,11,04,27.20
2015,07,19,11,05,27.20
2015,07,19,11,06,27.30
2015,07,19,11,07,27.50
2015,07,19,11,08,27.60
2015,07,19,11,09,27.70
2015,07,19,11,10,27.80
2015,07,19,11,11,27.90
2015,07,19,11,12,28.10
2015,07,19,11,13,28.20
2015,07,19,11,14,28.20
2015,07,19,11,15,28.30
2015,07,19,11,16,28.30
2015,07,19,11,17,28.30
2015,07,19,11,18,28.20
2015,07,19,11,19,28.20
2015,07,19,11,20,28.10
2015,07,19,11,21,28.10
2015,07,19,11,22,28.00
2015,07,19,11,23,27.90
2015,07,19,11,24,27.80
2015,07,19,11,25,27.70
2015,07,19,11,26,27.70
2015,07,19,11,27,27.70
2015,07,19,11,28,27.70
2015,07,19,11,29,27.60
2015,07,19,11,30,27.60
2015,07,19,11,31,27.70
2015,07,19,11,32,27.80
2015,07,19,11,33,27.90
2015,07,19,11,34,28.00
2015,07,19,11,35,28.10
2015,07,19,11,36,28.20
2015,07,19,11,37,28.20
2015,07,19,11,38,28.20
2015,07,19,11,39,28.20
2015,07,19,11,40,28.30
2015,07,19,11,41,28.30
2015,07,19,11,42,28.30
2015,07,19,11,43,28.30
2015,07,19,11,44,28.40
2015,07,19,11,45,28.40
2015,07,19,11,46,28.50
2015,07,19,11,47,28.50
2015,07,19,11,48,28.40
2015,07,19,11,49,28.40
2015,07,19,11,50,28.30
2015,07,19,11,51,28.30
2015,07,19,11,52,28.40
2015,07,19,11,53,28.40
2015,07,19,11,54,28.40
2015,07,19,11,55,28.20
2015,07,19,11,56,28.10
2015,07,19,11,57,28.00
2015,07,19,11,58,27.90
2015,07,19,11,59,27.80
2015,07,19,12,00,27.70
2015,07,19,12,01,27.50
2015,07,19,12,02,27.40
2015,07,19,12,03,27.30
2015,07,19,12,04,27.30
2015,07,19,12,05,27.30
2015,07,19,12,06,27.20
2015,07,19,12,07,27.20
2015,07,19,12,08,27.20
2015,07,19,12,09,27.20
2015,07,19,12,10,27.30
2015,07,19,12,11,27.40
2015,07,19,12,12,27.50
2015,07,19,12,13,27.50
2015,07,19,12,14,27.50
2015,07,19,12,15,27.40
2015,07,19,12,16,27.40
2015,07,19,12,17,27.40
2015,07,19,12,18,27.30
2015,07,19,12,19,27.20
2015,07,19,12,20,27.10
2015,07,19,12,21,27.00
2015,07,19,12,22,27.00
2015,07,19,12,23,27.00
2015,07,19,12,24,27.10
2015,07,19,12,25,26.90
2015,07,19,12,26,26.90
2015,07,19,12,27,27.00
2015,07,19,12,28,27.10
2015,07,19,12,29,27.20
2015,07,19,12,30,27.30
2015,07,19,12,31,27.40
2015,07,19,12,32,27.50
2015,07,19,12,33,27.60
2015,07,19,12,34,27.50
2015,07,19,12,35,27.50
2015,07,19,12,36,27.50
2015,07,19,12,37,27.50
2015,07,19,12,38,27.60
2015,07,19,12,39,27.70
2015,07,19,12,40,27.80
2015,07,19,12,41,27.80
2015,07,19,12,42,27.70
2015,07,19,12,43,27.50
2015,07,19,12,44,27.40
2015,07,19,12,45,27.40
2015,07,19,12,46,27.40
2015,07,19,12,47,27.40
2015,07,19,12,48,27.50
2015,07,19,12,49,27.50
2015,07,19,12,50,27.40
2015,07,19,12,51,27.50
2015,07,19,12,52,27.60
2015,07,19,12,53,27.70
2015,07,19,12,54,27.70
2015,07,19,12,55,27.80
2015,07,19,12,56,27.90
2015,07,19,12,57,27.80
2015,07,19,12,58,27.80
2015,07,19,12,59,27.70
2015,07,19,13,00,27.70
2015,07,19,13,01,27.70
2015,07,19,13,02,27.70
2015,07,19,13,03,27.70
2015,07,19,13,04,27.70
2015,07,19,13,05,27.60
2015,07,19,13,06,27.60
2015,07,19,13,07,27.60
2015,07,19,13,08,27.70
2015,07,19,13,09,27.70
2015,07,19,13,10,27.70
2015,07,19,13,11,27.70
2015,07,19,13,12,27.70
2015,07,19,13,13,27.80
2015,07,19,13,14,27.90
2015,07,19,13,15,28.00
2015,07,19,13,16,28.10
2015,07,19,13,17,28.20
2015,07,19,13,18,28.20
2015,07,19,13,19,28.20
2015,07,19,13,20,28.20
2015,07,19,13,21,28.10
2015,07,19,13,22,28.10
2015,07,19,13,23,28.00
2015,07,19,13,24,28.00
2015,07,19,13,25,27.90
2015,07,19,13,26,27.80
2015,07,19,13,27,27.80
2015,07,19,13,28,27.70
2015,07,19,13,29,27.60
2015,07,19,13,30,27.60
2015,07,19,13,31,27.60
2015,07,19,13,32,27.60
2015,07,19,13,33,27.70
2015,07,19,13,34,27.80
2015,07,19,13,35,27.90
2015,07,19,13,36,28.00
2015,07,19,13,37,28.00
2015,07,19,13,38,28.20
2015,07,19,13,39,28.30
2015,07,19,13,40,28.40
2015,07,19,13,41,28.50
2015,07,19,13,42,28.50
2015,07,19,13,43,28.40
2015,07,19,13,44,28.40
2015,07,19,13,45,28.40
2015,07,19,13,46,28.30
2015,07,19,13,47,28.30
2015,07,19,13,48,28.30
2015,07,19,13,49,28.30
2015,07,19,13,50,28.30
2015,07,19,13,51,28.30
2015,07,19,13,52,28.20
2015,07,19,13,53,28.30
2015,07,19,13,54,28.40
2015,07,19,13,55,28.40
2015,07,19,13,56,28.40
2015,07,19,13,57,28.50
2015,07,19,13,58,28.50
2015,07,19,13,59,28.40
2015,07,19,14,00,28.40
2015,07,19,14,01,28.50
2015,07,19,14,02,28.50
2015,07,19,14,03,28.60
2015,07,19,14,04,28.70
2015,07,19,14,05,28.70
2015,07,19,14,06,28.70
2015,07,19,14,07,28.70
2015,07,19,14,08,28.80
2015,07,19,14,09,28.80
2015,07,19,14,10,28.90
2015,07,19,14,11,28.90
2015,07,19,14,12,29.00
2015,07,19,14,13,28.90
2015,07,19,14,14,28.90
2015,07,19,14,15,28.90
2015,07,19,14,16,28.90
2015,07,19,14,17,28.90
2015,07,19,14,18,28.90
2015,07,19,14,19,28.90
2015,07,19,14,20,29.00
2015,07,19,14,21,29.10
2015,07,19,14,22,29.10
2015,07,19,14,23,29.20
2015,07,19,14,24,29.20
2015,07,19,14,25,29.10
2015,07,19,14,26,28.90
2015,07,19,14,27,28.90
2015,07,19,14,28,28.80
2015,07,19,14,29,28.80
2015,07,19,14,30,28.80
2015,07,19,14,31,28.80
2015,07,19,14,32,28.80
2015,07,19,14,33,28.70
2015,07,19,14,34,28.70
2015,07,19,14,35,28.70
2015,07,19,14,36,28.60
2015,07,19,14,37,28.50
2015,07,19,14,38,28.50
2015,07,19,14,39,28.40
2015,07,19,14,40,28.40
2015,07,19,14,41,28.40
2015,07,19,14,42,28.30
2015,07,19,14,43,28.20
2015,07,19,14,44,28.00
2015,07,19,14,45,27.80
2015,07,19,14,46,27.60
2015,07,19,14,47,27.40
2015,07,19,14,48,27.30
2015,07,19,14,49,27.30
2015,07,19,14,50,27.20
2015,07,19,14,51,27.00
2015,07,19,14,52,26.90
2015,07,19,14,53,26.80
2015,07,19,14,54,26.70
2015,07,19,14,55,26.70
2015,07,19,14,56,26.60
2015,07,19,14,57,26.60
2015,07,19,14,58,26.70
2015,07,19,14,59,26.90
2015,07,19,15,00,26.90
2015,07,19,15,01,26.80
2015,07,19,15,02,26.70
2015,07,19,15,03,26.70
2015,07,19,15,04,26.70
2015,07,19,15,05,26.80
2015,07,19,15,06,26.90
2015,07,19,15,07,27.00
2015,07,19,15,08,27.00
2015,07,19,15,09,27.10
2015,07,19,15,10,27.20
2015,07,19,15,11,27.30
2015,07,19,15,12,27.50
2015,07,19,15,13,27.60
2015,07,19,15,14,27.70
2015,07,19,15,15,27.70
2015,07,19,15,16,27.60
2015,07,19,15,17,27.60
2015,07,19,15,18,27.50
2015,07,19,15,19,27.30
2015,07,19,15,20,27.10
2015,07,19,15,21,26.90
2015,07,19,15,22,26.90
2015,07,19,15,23,26.90
2015,07,19,15,24,26.80
2015,07,19,15,25,26.70
2015,07,19,15,26,26.70
2015,07,19,15,27,26.70
2015,07,19,15,28,26.70
2015,07,19,15,29,26.80
2015,07,19,15,30,26.80
2015,07,19,15,31,26.80
2015,07,19,15,32,26.80
2015,07,19,15,33,26.80
2015,07,19,15,34,26.70
2015,07,19,15,35,26.50
2015,07,19,15,36,26.40
2015,07,19,15,37,26.30
2015,07,19,15,38,26.20
2015,07,19,15,39,26.10
2015,07,19,15,40,26.00
2015,07,19,15,41,25.90
2015,07,19,15,42,25.90
2015,07,19,15,43,25.90
2015,07,19,15,44,25.90
2015,07,19,15,45,25.90
2015,07,19,15,46,25.80
2015,07,19,15,47,25.80
2015,07,19,15,48,25.80
2015,07,19,15,49,25.80
2015,07,19,15,50,25.80
2015,07,19,15,51,25.80
2015,07,19,15,52,25.90
2015,07,19,15,53,25.90
2015,07,19,15,54,25.90
2015,07,19,15,55,26.00
2015,07,19,15,56,26.10
2015,07,19,15,57,26.10
2015,07,19,15,58,26.10
2015,07,19,15,59,26.00
2015,07,19,16,00,26.00
2015,07,19,16,01,25.90
2015,07,19,16,02,25.90
2015,07,19,16,03,26.00
2015,07,19,16,04,26.10
2015,07,19,16,05,26.10
2015,07,19,16,06,26.10
2015,07,19,16,07,26.00
2015,07,19,16,08,26.00
2015,07,19,16,09,25.90
2015,07,19,16,10,25.90
2015,07,19,16,11,25.80
2015,07,19,16,12,25.70
2015,07,19,16,13,25.60
2015,07,19,16,14,25.70
2015,07,19,16,15,25.70
2015,07,19,16,16,25.80
2015,07,19,16,17,25.90
2015,07,19,16,18,25.90
2015,07,19,16,19,26.00
2015,07,19,16,20,26.10
2015,07,19,16,21,26.20
2015,07,19,16,22,26.20
2015,07,19,16,23,26.20
2015,07,19,16,24,26.20
2015,07,19,16,25,26.20
2015,07,19,16,26,26.30
2015,07,19,16,27,26.30
2015,07,19,16,28,26.30
2015,07,19,16,29,26.30
2015,07,19,16,30,26.30
2015,07,19,16,31,26.30
2015,07,19,16,32,26.30
2015,07,19,16,33,26.30
2015,07,19,16,34,26.40
2015,07,19,16,35,26.40
2015,07,19,16,36,26.40
2015,07,19,16,37,26.40
2015,07,19,16,38,26.40
2015,07,19,16,39,26.50
2015,07,19,16,40,26.50
2015,07,19,16,41,26.40
2015,07,19,16,42,26.40
2015,07,19,16,43,26.30
2015,07,19,16,44,26.30
2015,07,19,16,45,26.20
2015,07,19,16,46,26.10
2015,07,19,16,47,26.10
2015,07,19,16,48,26.10
2015,07,19,16,49,26.10
2015,07,19,16,50,26.10
2015,07,19,16,51,26.10
2015,07,19,16,52,26.10
2015,07,19,16,53,26.20
2015,07,19,16,54,26.30
2015,07,19,16,55,26.40
2015,07,19,16,56,26.50
2015,07,19,16,57,26.50
2015,07,19,16,58,26.70
2015,07,19,16,59,26.70
2015,07,19,17,00,26.80
2015,07,19,17,01,26.80
2015,07,19,17,02,26.70
2015,07,19,17,03,26.70
2015,07,19,17,04,26.70
2015,07,19,17,05,26.70
2015,07,19,17,06,26.70
2015,07,19,17,07,26.80
2015,07,19,17,08,26.80
2015,07,19,17,09,26.90
2015,07,19,17,10,27.10
2015,07,19,17,11,27.20
2015,07,19,17,12,27.30
2015,07,19,17,13,27.40
2015,07,19,17,14,27.40
2015,07,19,17,15,27.50
2015,07,19,17,16,27.60
2015,07,19,17,17,27.70
2015,07,19,17,18,27.70
2015,07,19,17,19,27.80